This demonstration page uses our WeatherBlox Daily Observations layout. Learn more.

Hourly Observations for January 8, 2020

Temp ( °F °C ) Dew Point ( °F °C ) Humidity (%) Winds ( mph kmh ) Pressure ( in mb ) Visibility ( mi km ) Precip ( " mm )
12:54 am 00:54 Clear 25 -3.9 21 -6.1 85 85 NNE 6 9 30.3 1026 10 16.0934 0 0
1:54 am 01:54 Clear 23 -5 20 -6.7 88 88 NNE 6 9 30.31 1026 10 16.0934 0 0
2:54 am 02:54 Clear 24 -4.4 19 -7.2 81 81 NNE 6 9 30.31 1026 10 16.0934 0 0
3:54 am 03:54 Clear 23 -5 16 -8.9 74 74 ENE 6 9 30.3 1026 10 16.0934 0 0
4:54 am 04:54 Clear 23 -5 18 -7.8 81 81 E 5 7 30.28 1025 10 16.0934 0 0
5:54 am 05:54 Clear 24 -4.4 19 -7.2 81 81 E 8 13 30.28 1025 10 16.0934 0 0
6:54 am 06:54 Clear 24 -4.4 19 -7.2 81 81 ESE 10 17 30.28 1026 10 16.0934 0 0
7:54 am 07:54 Sunny 23 -5 19 -7.2 85 85 ESE 10 17 30.27 1025 10 16.0934 0 0
8:54 am 08:54 Sunny 24 -4.4 16 -8.9 71 71 E 13 20 30.26 1025 10 16.0934 0 0
9:54 am 09:54 Sunny 27 -2.8 17 -8.3 66 66 ESE 17 28 30.24 1024 10 16.0934 0 0
10:54 am 10:54 Sunny 30 -1.1 17 -8.3 58 58 SE 18 30 30.19 1022 10 16.0934 0 0
11:54 am 11:54 Sunny 34 1.1 15 -9.4 46 46 SE 18 30 30.13 1020 10 16.0934 0 0
12:54 pm 12:54 Sunny 36 2.2 15 -9.4 42 42 SE 16 26 30.07 1018 10 16.0934 0 0
1:54 pm 13:54 Sunny 38 3.3 16 -8.9 41 41 ESE 17 28 30.01 1016 10 16.0934 0 0
2:54 pm 14:54 Sunny 41 5 19 -7.2 41 41 ESE 20 31 29.96 1015 10 16.0934 0 0
3:54 pm 15:54 Sunny 41 5 19 -7.2 41 41 ESE 16 26 29.92 1013 10 16.0934 0 0
4:54 pm 16:54 Sunny 40 4.4 21 -6.1 47 47 SE 15 24 29.88 1012 10 16.0934 0 0
5:54 pm 17:54 Clear 40 4.4 22 -5.6 49 49 SE 13 20 29.87 1012 10 16.0934 0 0
6:54 pm 18:54 Clear 40 4.4 24 -4.4 53 53 SE 15 24 29.85 1011 10 16.0934 0 0
7:54 pm 19:54 Clear 40 4.4 24 -4.4 53 53 SE 13 20 29.83 1010 10 16.0934 0 0
8:54 pm 20:54 Clear 41 5 25 -3.9 53 53 SE 15 24 29.81 1009 10 16.0934 0 0
9:54 pm 21:54 Clear 43 6.1 25 -3.9 49 49 SSE 14 22 29.77 1008 10 16.0934 0 0
10:54 pm 22:54 Clear 44 6.7 24 -4.4 45 45 SSE 17 28 29.72 1007 10 16.0934 0 0
11:54 pm 23:54 Clear 42 5.6 25 -3.9 51 51 SSE 14 22 29.7 1006 10 16.0934 0 0

Powered by AerisWeather